Time,TemperatureF,DewpointF,PressureIn,WindDirection,WindDirectionDegrees,WindSpeedMPH,WindSpeedGustMPH,Humidity,HourlyPrecipIn,Conditions,Clouds,dailyrainin,SoftwareType,DateUTC
2013-01-25 00:01:00,23.8,1.9,30.45,North,0,2.0,6.0,38,0.00,,CLR,0.00,VWS V14.00,2013-01-25 05:01:00,
2013-01-25 00:16:00,23.8,0.8,30.45,North,0,0.0,6.0,36,0.00,,CLR,0.00,VWS V14.00,2013-01-25 05:16:00,
2013-01-25 00:31:00,23.5,1.6,30.46,North,0,0.0,6.0,38,0.00,,CLR,0.00,VWS V14.00,2013-01-25 05:31:00,
2013-01-25 00:46:00,23.2,3.0,30.47,North,0,0.0,5.0,41,0.00,,CLR,0.00,VWS V14.00,2013-01-25 05:46:00,
2013-01-25 01:01:00,22.7,2.0,30.46,North,0,0.0,2.0,40,0.00,,CLR,0.00,VWS V14.00,2013-01-25 06:01:00,
2013-01-25 01:16:00,21.9,2.8,30.46,North,0,0.0,2.0,43,0.00,,CLR,0.00,VWS V14.00,2013-01-25 06:16:00,
2013-01-25 01:31:00,21.3,3.3,30.47,North,0,0.0,1.0,45,0.00,,CLR,0.00,VWS V14.00,2013-01-25 06:31:00,
2013-01-25 01:46:00,20.6,4.5,30.47,North,0,0.0,1.0,49,0.00,,CLR,0.00,VWS V14.00,2013-01-25 06:46:00,
2013-01-25 02:01:00,20.3,5.1,30.47,North,0,0.0,0.0,51,0.00,,CLR,0.00,VWS V14.00,2013-01-25 07:01:00,
2013-01-25 02:16:00,19.9,5.1,30.47,North,0,0.0,0.0,52,0.00,,CLR,0.00,VWS V14.00,2013-01-25 07:16:00,
2013-01-25 02:31:00,19.5,5.6,30.47,North,0,0.0,0.0,54,0.00,,CLR,0.00,VWS V14.00,2013-01-25 07:31:00,
2013-01-25 02:46:00,20.0,5.6,30.47,North,0,0.0,0.0,53,0.00,,CLR,0.00,VWS V14.00,2013-01-25 07:46:00,
2013-01-25 03:01:00,20.5,5.7,30.47,North,0,0.0,0.0,52,0.00,,CLR,0.00,VWS V14.00,2013-01-25 08:01:00,
2013-01-25 03:16:00,20.3,5.9,30.46,North,0,0.0,0.0,53,0.00,,CLR,0.00,VWS V14.00,2013-01-25 08:16:00,
2013-01-25 03:31:00,20.0,5.6,30.45,North,0,0.0,0.0,53,0.00,,CLR,0.00,VWS V14.00,2013-01-25 08:31:00,
2013-01-25 03:46:00,20.3,5.9,30.46,North,0,0.0,0.0,53,0.00,,CLR,0.00,VWS V14.00,2013-01-25 08:46:00,
2013-01-25 04:01:00,20.5,6.1,30.44,North,0,0.0,0.0,53,0.00,,CLR,0.00,VWS V14.00,2013-01-25 09:01:00,
2013-01-25 04:16:00,20.8,5.5,30.45,North,0,0.0,0.0,51,0.00,,CLR,0.00,VWS V14.00,2013-01-25 09:16:00,
2013-01-25 04:31:00,21.0,4.8,30.44,North,0,0.0,0.0,49,0.00,,CLR,0.00,VWS V14.00,2013-01-25 09:31:00,
2013-01-25 04:46:00,21.1,4.5,30.44,North,0,0.0,1.0,48,0.00,,CLR,0.00,VWS V14.00,2013-01-25 09:46:00,
2013-01-25 05:01:00,21.3,5.1,30.44,North,0,0.0,0.0,49,0.00,,CLR,0.00,VWS V14.00,2013-01-25 10:01:00,
2013-01-25 05:16:00,21.4,4.8,30.45,North,0,0.0,0.0,48,0.00,,CLR,0.00,VWS V14.00,2013-01-25 10:16:00,
2013-01-25 05:31:00,21.8,5.1,30.44,North,0,0.0,1.0,48,0.00,,CLR,0.00,VWS V14.00,2013-01-25 10:31:00,
2013-01-25 05:46:00,21.9,3.3,30.44,North,0,0.0,1.0,44,0.00,,CLR,0.00,VWS V14.00,2013-01-25 10:46:00,
2013-01-25 06:01:00,22.2,4.6,30.43,North,0,0.0,1.0,46,0.00,,CLR,0.00,VWS V14.00,2013-01-25 11:01:00,
2013-01-25 06:16:00,22.4,4.3,30.43,North,0,0.0,2.0,45,0.00,,CLR,0.00,VWS V14.00,2013-01-25 11:16:00,
2013-01-25 06:31:00,22.4,3.3,30.44,North,0,0.0,2.0,43,0.00,,CLR,0.00,VWS V14.00,2013-01-25 11:31:00,
2013-01-25 06:46:00,22.4,4.3,30.43,North,0,0.0,2.0,45,0.00,,CLR,0.00,VWS V14.00,2013-01-25 11:46:00,
2013-01-25 07:01:00,22.4,5.2,30.42,North,0,1.0,2.0,47,0.00,,CLR,0.00,VWS V14.00,2013-01-25 12:01:00,
2013-01-25 07:16:00,22.4,4.3,30.43,North,0,2.0,3.0,45,0.00,,CLR,0.00,VWS V14.00,2013-01-25 12:16:00,
2013-01-25 07:31:00,22.5,4.4,30.41,North,0,2.0,5.0,45,0.00,,CLR,0.00,VWS V14.00,2013-01-25 12:31:00,
2013-01-25 07:46:00,22.5,4.9,30.40,North,0,0.0,6.0,46,0.00,,CLR,0.00,VWS V14.00,2013-01-25 12:46:00,
2013-01-25 08:01:00,22.7,4.6,30.41,North,0,1.0,5.0,45,0.00,,CLR,0.00,VWS V14.00,2013-01-25 13:01:00,
2013-01-25 08:16:00,22.9,5.2,30.40,North,0,1.0,6.0,46,0.00,,CLR,0.00,VWS V14.00,2013-01-25 13:16:00,
2013-01-25 08:31:00,23.0,5.3,30.41,North,0,0.0,4.0,46,0.00,,CLR,0.00,VWS V14.00,2013-01-25 13:31:00,
2013-01-25 08:46:00,23.0,4.8,30.42,North,0,1.0,3.0,45,0.00,,CLR,0.00,VWS V14.00,2013-01-25 13:46:00,
2013-01-25 09:01:00,23.2,4.5,30.41,North,0,0.0,3.0,44,0.00,,BKN110,0.00,VWS V14.00,2013-01-25 14:01:00,
2013-01-25 09:16:00,23.5,5.3,30.42,North,0,0.0,3.0,45,0.00,,BKN110,0.00,VWS V14.00,2013-01-25 14:16:00,
2013-01-25 09:31:00,23.6,7.3,30.41,North,0,1.0,2.0,49,0.00,,BKN110,0.00,VWS V14.00,2013-01-25 14:31:00,
2013-01-25 09:46:00,23.3,6.5,30.39,North,0,1.0,4.0,48,0.00,,BKN110,0.00,VWS V14.00,2013-01-25 14:46:00,
2013-01-25 10:01:00,23.3,6.5,30.38,North,359,3.0,5.0,48,0.00,,OVC060,0.00,VWS V14.00,2013-01-25 15:01:00,
2013-01-25 10:16:00,23.3,7.0,30.37,North,357,1.0,4.0,49,0.00,,OVC060,0.00,VWS V14.00,2013-01-25 15:16:00,
2013-01-25 10:31:00,23.5,7.2,30.37,NW,309,1.0,8.0,49,0.00,,OVC060,0.00,VWS V14.00,2013-01-25 15:31:00,
2013-01-25 10:46:00,23.5,7.6,30.37,North,359,0.0,6.0,50,0.00,,OVC060,0.00,VWS V14.00,2013-01-25 15:46:00,
2013-01-25 11:01:00,23.2,10.6,30.38,North,0,0.0,7.0,58,0.00,,OVC055,0.00,VWS V14.00,2013-01-25 16:01:00,
2013-01-25 11:16:00,22.7,10.9,30.36,North,0,0.0,5.0,60,0.00,,OVC055,0.00,VWS V14.00,2013-01-25 16:16:00,
2013-01-25 11:31:00,22.2,10.8,30.35,North,0,0.0,6.0,61,0.00,,OVC055,0.00,VWS V14.00,2013-01-25 16:31:00,
2013-01-25 11:46:00,22.4,12.8,30.32,North,0,3.0,3.0,66,0.00,,OVC055,0.00,VWS V14.00,2013-01-25 16:46:00,
2013-01-25 12:01:00,22.5,12.9,30.31,North,0,0.0,5.0,66,0.00,,OVC047,0.00,VWS V14.00,2013-01-25 17:01:00,
2013-01-25 12:16:00,22.4,12.4,30.29,North,0,0.0,5.0,65,0.00,,OVC047,0.00,VWS V14.00,2013-01-25 17:16:00,
2013-01-25 12:31:00,22.7,12.4,30.26,West,280,0.0,4.0,64,0.00,,OVC047,0.00,VWS V14.00,2013-01-25 17:31:00,
2013-01-25 12:46:00,22.7,12.0,30.25,North,0,0.0,3.0,63,0.00,,OVC047,0.00,VWS V14.00,2013-01-25 17:46:00,
2013-01-25 13:01:00,22.5,12.5,30.24,North,0,0.0,4.0,65,0.00,,OVC041,0.00,VWS V14.00,2013-01-25 18:01:00,
2013-01-25 13:16:00,22.7,13.1,30.25,North,0,0.0,5.0,66,0.00,,OVC041,0.00,VWS V14.00,2013-01-25 18:16:00,
2013-01-25 13:31:00,22.9,13.9,30.25,North,0,0.0,3.0,68,0.00,,OVC041,0.00,VWS V14.00,2013-01-25 18:31:00,
2013-01-25 13:46:00,22.9,15.2,30.22,North,0,0.0,3.0,72,0.00,,OVC041,0.00,VWS V14.00,2013-01-25 18:46:00,
2013-01-25 14:01:00,22.9,16.5,30.20,North,0,2.0,5.0,76,0.00,,OVC035,0.00,VWS V14.00,2013-01-25 19:01:00,
2013-01-25 14:16:00,23.2,17.7,30.20,North,0,0.0,3.0,79,0.00,,OVC035,0.00,VWS V14.00,2013-01-25 19:16:00,
2013-01-25 14:31:00,23.3,18.1,30.17,NW,323,0.0,6.0,80,0.00,,OVC035,0.00,VWS V14.00,2013-01-25 19:31:00,
2013-01-25 14:46:00,23.3,18.1,30.16,North,0,0.0,4.0,80,0.00,,OVC035,0.00,VWS V14.00,2013-01-25 19:46:00,
2013-01-25 15:01:00,23.5,18.5,30.17,North,0,0.0,3.0,81,0.00,,OVC075,0.00,VWS V14.00,2013-01-25 20:01:00,
2013-01-25 15:16:00,23.5,18.8,30.16,North,0,0.0,4.0,82,0.00,,OVC075,0.00,VWS V14.00,2013-01-25 20:16:00,
2013-01-25 15:31:00,23.6,19.2,30.15,North,0,0.0,3.0,83,0.00,,OVC075,0.00,VWS V14.00,2013-01-25 20:31:00,
2013-01-25 15:46:00,23.6,19.2,30.13,North,0,0.0,2.0,83,0.00,,OVC075,0.00,VWS V14.00,2013-01-25 20:46:00,
2013-01-25 16:01:00,23.8,19.7,30.14,North,0,0.0,1.0,84,0.00,,OVC075,0.00,VWS V14.00,2013-01-25 21:01:00,
2013-01-25 16:16:00,23.9,19.8,30.13,North,0,0.0,2.0,84,0.00,,OVC075,0.00,VWS V14.00,2013-01-25 21:16:00,
2013-01-25 16:31:00,24.1,20.0,30.14,North,359,1.0,2.0,84,0.00,,OVC075,0.00,VWS V14.00,2013-01-25 21:31:00,
2013-01-25 16:46:00,24.1,20.0,30.12,North,0,0.0,3.0,84,0.00,,OVC075,0.00,VWS V14.00,2013-01-25 21:46:00,
2013-01-25 17:01:00,24.2,20.4,30.11,NNW,346,0.0,2.0,85,0.00,,OVC024,0.00,VWS V14.00,2013-01-25 22:01:00,
2013-01-25 17:16:00,24.2,20.1,30.12,North,356,0.0,2.0,84,0.00,,OVC024,0.00,VWS V14.00,2013-01-25 22:16:00,
2013-01-25 17:31:00,24.1,19.7,30.11,North,0,1.0,6.0,83,0.00,,OVC024,0.00,VWS V14.00,2013-01-25 22:31:00,
2013-01-25 17:46:00,24.1,19.4,30.12,North,0,1.0,7.0,82,0.00,,OVC024,0.00,VWS V14.00,2013-01-25 22:46:00,
2013-01-25 18:01:00,24.1,19.4,30.12,North,0,1.0,3.0,82,0.00,,OVC022,0.00,VWS V14.00,2013-01-25 23:01:00,
2013-01-25 18:16:00,24.1,19.4,30.11,North,0,1.0,2.0,82,0.00,,OVC022,0.00,VWS V14.00,2013-01-25 23:16:00,
2013-01-25 18:31:00,24.2,19.8,30.11,North,0,1.0,3.0,83,0.00,,OVC022,0.00,VWS V14.00,2013-01-25 23:31:00,
2013-01-25 18:46:00,24.2,20.1,30.11,North,0,0.0,2.0,84,0.00,,OVC022,0.00,VWS V14.00,2013-01-25 23:46:00,
2013-01-25 19:01:00,24.2,20.1,30.11,WNW,287,0.0,2.0,84,0.00,,OVC020,0.00,VWS V14.00,2013-01-26 00:01:00,
2013-01-25 19:16:00,24.2,20.1,30.11,WNW,285,0.0,2.0,84,0.00,,OVC020,0.00,VWS V14.00,2013-01-26 00:16:00,
2013-01-25 19:31:00,24.2,20.1,30.11,WNW,284,2.0,3.0,84,0.00,,OVC045,0.00,VWS V14.00,2013-01-26 00:31:00,
2013-01-25 19:46:00,24.2,20.4,30.11,WSW,241,2.0,5.0,85,0.00,,OVC045,0.00,VWS V14.00,2013-01-26 00:46:00,
2013-01-25 20:01:00,24.2,20.4,30.09,SW,232,4.0,6.0,85,0.00,,OVC015,0.00,VWS V14.00,2013-01-26 01:01:00,
2013-01-25 20:16:00,24.5,20.9,30.08,SW,233,0.0,4.0,86,0.00,,OVC015,0.00,VWS V14.00,2013-01-26 01:16:00,
2013-01-25 20:31:00,24.4,20.8,30.08,WSW,247,1.0,4.0,86,0.00,,OVC015,0.00,VWS V14.00,2013-01-26 01:31:00,
2013-01-25 20:46:00,24.4,20.8,30.08,SW,226,3.0,3.0,86,0.00,,OVC015,0.00,VWS V14.00,2013-01-26 01:46:00,
2013-01-25 21:01:00,24.4,21.1,30.08,WNW,282,0.0,5.0,87,0.00,,OVC009,0.00,VWS V14.00,2013-01-26 02:01:00,
2013-01-25 21:16:00,24.7,21.4,30.09,WSW,251,1.0,5.0,87,0.00,,OVC009,0.00,VWS V14.00,2013-01-26 02:16:00,
2013-01-25 21:31:00,24.8,21.5,30.09,WSW,256,3.0,6.0,87,0.00,,OVC009,0.00,VWS V14.00,2013-01-26 02:31:00,
2013-01-25 21:46:00,25.0,21.7,30.09,West,260,2.0,6.0,87,0.00,,OVC009,0.00,VWS V14.00,2013-01-26 02:46:00,
2013-01-25 22:01:00,25.0,21.7,30.09,WSW,244,0.0,3.0,87,0.00,,,0.00,VWS V14.00,2013-01-26 03:01:00,
2013-01-25 22:16:00,25.1,21.8,30.09,West,264,1.0,3.0,87,0.00,,,0.00,VWS V14.00,2013-01-26 03:16:00,
2013-01-25 22:31:00,25.3,22.0,30.08,WSW,256,1.0,6.0,87,0.00,,,0.00,VWS V14.00,2013-01-26 03:31:00,
2013-01-25 22:46:00,25.3,22.0,30.08,WSW,257,1.0,7.0,87,0.00,,,0.00,VWS V14.00,2013-01-26 03:46:00,
2013-01-25 23:01:00,25.4,22.4,30.08,West,260,1.0,4.0,88,0.00,,,0.00,VWS V14.00,2013-01-26 04:01:00,
2013-01-25 23:16:00,25.4,22.4,30.08,WNW,282,4.0,8.0,88,0.00,,,0.00,VWS V14.00,2013-01-26 04:16:00,
2013-01-25 23:31:00,25.4,22.4,30.08,West,264,1.0,8.0,88,0.00,,,0.00,VWS V14.00,2013-01-26 04:31:00,
2013-01-25 23:46:00,25.4,22.4,30.08,WSW,253,3.0,8.0,88,0.00,,,0.00,VWS V14.00,2013-01-26 04:46:00,